[[{"header":{"parameterUnit":"m.s-1","parameterCategory":1,"la1":30.2991,"la2":30.254,"lo1":-89.0895,"lo2":-89.0444,"dy":0.0017,"dx":0.0017,"nx":28,"ny":28,"refTime":"2025-03-07T03:00:00:Z","depth":0,"parameterNumber":2,"parameterNumberName":"U-component_of_WINDS"},"data":[0,0,0,0,0,0,0,0,0,0,0,0,0,0,0,0,0,0,0,0,0,0,0,0,0,0,0,0,0,0,0,0,0,0,0,0,0,0,0,0,0,0,0,0,0,0,0,0,0,0,0,0,0,0,0,0,0,0,1.8122,1.8123,0,1.8226,1.8228,1.8229,1.824,1.8239,1.8238,1.8237,1.8347,1.8351,1.8355,0,0,0,0,0,0,0,0,0,0,0,0,0,1.7937,1.794,1.8122,1.8124,1.8125,1.8226,1.8228,1.8229,1.824,1.8239,1.8237,1.8236,1.8346,1.8351,1.8355,0,0,0,0,0,0,0,0,0,0,0,0,0,1.8027,1.7941,1.8122,1.8142,1.8145,1.8226,1.8228,1.823,1.824,1.8239,1.8237,1.8236,1.8344,1.835,1.8356,1.8425,0,0,1.8374,1.8377,0,0,0,0,0,0,0,0,1.8022,1.8034,1.8138,1.8141,1.8144,1.8218,1.8203,1.8295,1.8241,1.8204,1.8237,1.8235,1.8306,1.8315,1.8338,1.843,1.8435,1.8375,1.8378,1.8381,1.8382,0,0,0,0,0,0,0,1.8015,1.8029,1.8164,1.814,1.8144,1.8148,1.8159,1.822,1.8263,1.8207,1.8208,1.822,1.8307,1.8332,1.8341,1.8436,1.8374,1.838,1.8383,1.8386,1.8591,1.8593,0,0,0,0,0,0,1.8005,1.8024,1.816,1.8167,1.8078,1.8152,1.8165,1.8196,1.8262,1.8271,1.8222,1.8221,1.8323,1.8334,1.8345,1.8431,1.8381,1.8386,1.839,1.8589,1.8592,1.8594,0,0,0,0,0,0,1.8001,1.8017,1.8156,1.8096,1.8114,1.8157,1.8193,1.8199,1.8224,1.8273,1.8281,1.8239,1.8322,1.8336,1.8405,1.8435,1.8389,1.8394,1.8587,1.859,1.8593,1.8602,0,0,0,0,0,0,1.7995,1.8015,1.8041,1.8096,1.8117,1.8213,1.8195,1.8202,1.8234,1.8233,1.8292,1.83,1.8322,1.8396,1.8411,1.8442,1.8399,1.8585,1.8588,1.8592,1.8599,1.8605,1.861,0,0,0,0,0,1.7989,1.804,1.8042,1.8059,1.8149,1.8215,1.8227,1.825,1.8236,1.8263,1.8295,1.8298,1.8429,1.8403,1.842,1.8453,1.8583,1.8587,1.8591,1.8597,1.8604,1.861,0,0,0,0,0,0,1.7988,1.8048,1.8051,1.8121,1.8163,1.8216,1.8251,1.8257,1.8304,1.8302,1.833,1.8343,1.8411,1.8439,1.8409,1.8524,1.8505,1.8512,1.8503,1.851,1.8515,1.8507,1.8404,0,0,0,0,0,1.7996,1.8043,1.8093,1.815,1.8171,1.8207,1.8237,1.8251,1.8296,1.8314,1.835,1.8395,1.8446,1.8479,1.8529,1.8603,1.8617,1.8635,1.864,1.8644,1.865,1.8693,1.8702,1.8608,1.8608,1.8608,0,0,1.8013,1.8052,1.808,1.8151,1.8185,1.8234,1.8222,1.8275,1.8312,1.8322,1.8389,1.8417,1.8469,1.8541,1.8574,1.8566,1.8679,1.8649,1.8652,1.8657,1.8698,1.8707,1.8715,1.8611,1.861,1.861,0,0,1.807,1.8103,1.8155,1.8189,1.824,1.8264,1.8277,1.833,1.8349,1.8416,1.8425,1.8471,1.8558,1.8595,1.8625,1.8696,1.8701,1.8711,1.8739,1.878,1.8787,1.8794,1.8821,1.883,1.8718,1.8718,1.8718,0,1.8085,1.8159,1.8181,1.8234,1.8265,1.8276,1.833,1.8362,1.8427,1.845,1.8439,1.855,1.8585,1.8666,1.8683,1.8707,1.8723,1.8705,1.8784,1.8791,1.8798,1.8824,1.8833,1.8719,1.8719,1.8719,1.8719,0,1.8176,1.8227,1.8262,1.8324,1.836,1.8413,1.8445,1.8478,1.849,1.8515,1.8584,1.8627,1.8686,1.8706,1.8718,1.879,1.8783,1.8778,1.876,1.8807,1.8832,1.8842,1.872,1.872,1.872,1.8719,0,0,1.8235,1.8309,1.8322,1.8351,1.8408,1.8449,1.8502,1.8559,1.8588,1.8633,1.868,1.8753,1.8749,1.8783,1.88,1.8836,1.8891,1.8827,1.8828,1.8838,1.8973,1.8977,1.8988,1.8894,1.8896,1.8898,1.8969,0,1.83,1.8394,1.8416,1.8498,1.8547,1.8558,1.8605,1.8646,1.8671,1.8717,1.8745,1.8798,1.8787,1.8808,1.8844,1.8876,1.8918,1.8871,1.894,1.8942,1.8927,1.9001,1.9006,1.9071,1.8979,1.8981,1.8982,0,1.8387,1.8433,1.852,1.8571,1.8593,1.8634,1.8689,1.8731,1.8779,1.8795,1.8833,1.8846,1.8904,1.8882,1.8963,1.893,1.8959,1.898,1.8983,1.8991,1.8965,1.9012,1.9093,1.9103,1.8997,1.8996,1.8995,0,1.8424,1.8507,1.857,1.8594,1.8656,1.8685,1.8712,1.8758,1.8791,1.8839,1.8861,1.8915,1.8945,1.8987,1.9015,1.8996,1.9094,1.9074,1.9111,1.911,1.9132,1.913,1.9219,1.9149,1.9148,1.9148,1.9148,0,1.8493,1.8546,1.8587,1.8626,1.8686,1.8711,1.877,1.8798,1.8839,1.8884,1.8897,1.894,1.8973,1.9021,1.9043,1.9107,1.912,1.9136,1.9142,1.9136,1.9134,1.9156,1.9153,1.9151,1.915,1.915,1.9149,0,1.8545,1.8574,1.8643,1.8696,1.871,1.8752,1.8798,1.8837,1.8862,1.892,1.8935,1.8976,1.9032,1.9064,1.9135,1.915,1.9223,1.9225,1.9206,1.9209,1.9244,1.9241,1.9351,1.9367,1.9285,1.9286,1.9286,0,1.8588,1.8629,1.8686,1.8716,1.8744,1.8793,1.8827,1.8854,1.8888,1.8946,1.8978,1.9035,1.9082,1.9173,1.921,1.9265,1.9269,1.9304,1.9278,1.9271,1.9271,1.9269,1.9274,1.9309,1.931,1.9311,1.9311,0,1.8662,1.8674,1.8721,1.8774,1.8813,1.8856,1.8899,1.8924,1.8958,1.8996,1.9054,1.909,1.9163,1.922,1.9278,1.9308,1.9316,1.9319,1.933,1.9325,1.9313,1.9321,1.922,1.9317,1.9316,1.9316,1.9315,1.9315,1.8711,1.8749,1.8794,1.8847,1.8881,1.8921,1.896,1.899,1.9038,1.9099,1.9112,1.9173,1.9221,1.9299,1.9331,1.938,1.9373,1.939,1.9394,1.9398,1.94,1.9304,1.939,1.939,1.939,1.939,1.939,0,1.8787,1.8817,1.8865,1.8924,1.8965,1.8967,1.9015,1.905,1.9103,1.9146,1.9192,1.9259,1.9315,1.9356,1.9413,1.9444,1.9449,1.9459,1.9457,1.9464,1.9402,1.9387,1.9453,1.9453,1.9453,1.9453,1.9453,1.9453,1.8831,1.8895,1.8913,1.8994,1.9024,1.9083,1.911,1.9147,1.9182,1.9255,1.9301,1.9327,1.937,1.943,1.9482,1.9492,1.9513,1.9522,1.9534,1.9475,1.9468,1.9462,1.9448,1.9526,1.9526,1.9592,1.9592,1.9593]},{"header":{"parameterUnit":"m.s-1","parameterCategory":1,"la1":30.2991,"la2":30.254,"lo1":-89.0895,"lo2":-89.0444,"dy":0.0017,"dx":0.0017,"nx":28,"ny":28,"refTime":"2025-03-07T03:00:00:Z","depth":0,"parameterNumber":3,"parameterNumberName":"V-component_of_WINDS"},"data":[0,0,0,0,0,0,0,0,0,0,0,0,0,0,0,0,0,0,0,0,0,0,0,0,0,0,0,0,0,0,0,0,0,0,0,0,0,0,0,0,0,0,0,0,0,0,0,0,0,0,0,0,0,0,0,0,0,0,0.7308,0.7307,0,0.7264,0.7264,0.7263,0.7172,0.717,0.7168,0.7167,0.7121,0.7122,0.7122,0,0,0,0,0,0,0,0,0,0,0,0,0,0.731,0.731,0.7308,0.7307,0.7307,0.7264,0.7264,0.7263,0.7172,0.717,0.7168,0.7166,0.7121,0.7122,0.7122,0,0,0,0,0,0,0,0,0,0,0,0,0,0.7292,0.731,0.7308,0.7256,0.7251,0.7264,0.7264,0.7263,0.7173,0.717,0.7167,0.7165,0.7121,0.7122,0.7122,0.7182,0,0,0.7125,0.7125,0,0,0,0,0,0,0,0,0.7293,0.7292,0.7265,0.726,0.7254,0.7221,0.7247,0.7236,0.7173,0.7203,0.7167,0.7163,0.7156,0.7154,0.7152,0.718,0.7178,0.7125,0.7125,0.7125,0.7126,0,0,0,0,0,0,0,0.7294,0.7293,0.7291,0.7264,0.7258,0.7234,0.7229,0.7245,0.7195,0.72,0.7193,0.7189,0.7153,0.7151,0.715,0.7177,0.7125,0.7125,0.7126,0.7126,0.7245,0.7248,0,0,0,0,0,0,0.7303,0.7295,0.7292,0.7289,0.7267,0.7237,0.723,0.7234,0.7195,0.7186,0.7192,0.7185,0.7151,0.7149,0.7148,0.7211,0.7125,0.7126,0.7126,0.7243,0.7246,0.7249,0,0,0,0,0,0,0.7304,0.7304,0.7294,0.729,0.7287,0.7239,0.7245,0.7235,0.7233,0.7189,0.7179,0.7199,0.7149,0.7147,0.7173,0.7209,0.7126,0.7127,0.724,0.7244,0.7248,0.7341,0,0,0,0,0,0,0.7304,0.7305,0.7328,0.7291,0.7288,0.7321,0.7247,0.7236,0.7235,0.7226,0.7193,0.7185,0.7147,0.7172,0.7174,0.7208,0.7128,0.7236,0.7241,0.7246,0.7334,0.7347,0.7359,0,0,0,0,0,0.7304,0.7357,0.733,0.733,0.7316,0.7323,0.7321,0.7276,0.7238,0.726,0.723,0.7186,0.7205,0.7176,0.7176,0.7212,0.7234,0.724,0.7246,0.7329,0.7345,0.7359,0,0,0,0,0,0,0.74,0.7351,0.732,0.7363,0.7347,0.7308,0.7334,0.7295,0.729,0.7282,0.7226,0.7219,0.7252,0.7234,0.7203,0.7264,0.7212,0.7218,0.7274,0.729,0.7302,0.7304,0.7128,0,0,0,0,0,0.7425,0.7436,0.7393,0.7434,0.7428,0.7383,0.7384,0.735,0.7332,0.7325,0.7298,0.7282,0.7283,0.7286,0.7285,0.7332,0.7321,0.7356,0.7368,0.7379,0.7384,0.7403,0.7417,0.7269,0.7269,0.7269,0,0,0.7479,0.7454,0.7464,0.7453,0.7437,0.7447,0.7378,0.7393,0.7399,0.7328,0.7349,0.7329,0.7306,0.7341,0.7356,0.7328,0.7423,0.7386,0.7395,0.7395,0.7411,0.7425,0.7437,0.7273,0.7273,0.7272,0,0,0.7581,0.7565,0.7595,0.758,0.7557,0.7525,0.7533,0.7498,0.7481,0.7502,0.7447,0.7453,0.7459,0.7443,0.7437,0.7529,0.7486,0.753,0.7594,0.7613,0.7625,0.7634,0.7664,0.7675,0.7537,0.7537,0.7537,0,0.7651,0.7665,0.7616,0.7633,0.7628,0.7563,0.7591,0.7579,0.7557,0.7554,0.7524,0.7526,0.7507,0.7535,0.7557,0.7555,0.7559,0.7533,0.7627,0.7636,0.7645,0.7672,0.7684,0.7542,0.7542,0.7541,0.7541,0,0.7749,0.776,0.7787,0.7766,0.7764,0.7787,0.774,0.7744,0.7709,0.7681,0.77,0.7675,0.7665,0.767,0.7638,0.7693,0.7676,0.7637,0.7583,0.7665,0.7689,0.77,0.755,0.7548,0.7546,0.7545,0,0,0.7912,0.786,0.7871,0.7858,0.7826,0.7832,0.7851,0.7842,0.7844,0.7831,0.7843,0.7847,0.7809,0.7801,0.7766,0.7783,0.7853,0.7742,0.774,0.776,0.7907,0.7935,0.7948,0.7825,0.7827,0.7829,0.7908,0,0.8004,0.8034,0.7988,0.8027,0.8034,0.797,0.7986,0.7967,0.794,0.794,0.791,0.7913,0.7865,0.7859,0.7873,0.7842,0.7881,0.7836,0.7833,0.7834,0.7839,0.7961,0.7991,0.8067,0.7918,0.7919,0.792,0,0.8117,0.8106,0.8146,0.8107,0.8108,0.8123,0.8108,0.8111,0.8086,0.8065,0.8055,0.8012,0.8025,0.7974,0.7989,0.7959,0.7955,0.7939,0.7941,0.7937,0.7881,0.7958,0.8091,0.8101,0.7936,0.7934,0.7933,0,0.8227,0.8223,0.8244,0.8236,0.8193,0.8204,0.8186,0.8159,0.8155,0.8142,0.8138,0.8127,0.8121,0.8112,0.8067,0.8034,0.8086,0.8032,0.8066,0.8067,0.8079,0.8078,0.821,0.8082,0.8081,0.8081,0.8081,0,0.8333,0.8359,0.8292,0.8306,0.8331,0.8278,0.8305,0.828,0.8256,0.8262,0.8207,0.8213,0.8154,0.8153,0.8118,0.8134,0.8132,0.8113,0.8103,0.8117,0.8119,0.8112,0.8104,0.8084,0.8083,0.8083,0.8082,0,0.846,0.8417,0.8436,0.8392,0.8381,0.8402,0.8363,0.8372,0.8341,0.8349,0.8347,0.8298,0.8293,0.8247,0.8234,0.821,0.8238,0.8219,0.8246,0.8239,0.8274,0.8271,0.8405,0.8418,0.8284,0.8285,0.8286,0,0.853,0.8548,0.8505,0.8504,0.8489,0.849,0.8484,0.8431,0.8428,0.8399,0.8411,0.8402,0.8392,0.8387,0.8349,0.8337,0.8316,0.8363,0.8314,0.8325,0.8312,0.831,0.831,0.8374,0.8375,0.8377,0.8378,0,0.8657,0.8634,0.8628,0.8614,0.8609,0.8596,0.8579,0.8582,0.8523,0.8522,0.8516,0.8508,0.8492,0.8483,0.8463,0.8443,0.84,0.8394,0.84,0.8413,0.8427,0.8416,0.8272,0.8391,0.8389,0.8389,0.8388,0.8387,0.8755,0.8766,0.8736,0.8731,0.8712,0.8697,0.8702,0.867,0.8665,0.8647,0.8617,0.8615,0.8585,0.8555,0.8538,0.8534,0.8509,0.852,0.8522,0.8524,0.853,0.8429,0.8531,0.853,0.853,0.853,0.8529,0,0.8876,0.8853,0.8849,0.8825,0.882,0.878,0.8758,0.8756,0.8755,0.8732,0.8722,0.8714,0.8703,0.8664,0.8648,0.8653,0.8632,0.865,0.8648,0.8643,0.8555,0.855,0.8667,0.8667,0.8667,0.8667,0.8667,0.8666,0.8938,0.8953,0.8926,0.8931,0.8907,0.8905,0.8895,0.8879,0.886,0.8853,0.8843,0.8817,0.8786,0.8768,0.8755,0.8743,0.8739,0.8763,0.8744,0.8663,0.865,0.8637,0.8631,0.8763,0.8763,0.8831,0.8832,0.8833]}]]